Home > Weather > Kassala > Past weeks

Flag for Sudan Past Weather in Kassala, Sudan — Yesterday and Last 2 Weeks

Now
88 °F

Sunny.


Feels Like: 87 °F
Forecast: 78 / 98 °F
Wind: 16 mph from Southwest

Location: Khartoum Airport

Current Time: Aug 25, 2016 at 1:02:39 PM

Latest Report: Aug 25, 2016 at 12:30 PM


Visibility: 10 mi

Pressure: 29.89 "Hg (28.24 "Hg at 506m altitude)

Humidity: 38%

Dew Point: 59 °F

Location of KassalaLocation

Past Weather in Kassala — Graph

°F

Kassala Temperature Yesterday

Maximum temperature yesterday: 102 °F (at 3:30 PM)
Minimum temperature yesterday: 82 °F (at 6:30 AM)
Average temperature yesterday: 93 °F

High & Low Weather Summary for the Past Weeks

 TemperatureHumidityPressure
High106 °F (Aug 16, 4:30 PM)84% (Aug 15, 4:00 AM)30.01 "Hg (Aug 15, 4:00 AM)
Low73 °F (Aug 20, 3:30 AM)15% (Aug 24, 7:00 PM)29.71 "Hg (Aug 16, 4:30 PM)
Average87 °F50%29.85 "Hg
* Reported Aug 10 12:00 PM — Aug 25 12:00 PM, Kassala, Weather by CustomWeather, © 2016

Note: Actual official high and low records may vary slightly from our data, if they occured in-between our weather recording intervals... More about our weather records

Advertising

Kassala Weather History for the Previous 24 Hours

Scroll right to see more
 ConditionsComfort  
Time TempWeatherWind HumidityBarometerVisibility
12:00 PM
Thu, Aug 25
88 °FSunny.15 mph40%29.89 "Hg10 mi
11:00 AM86 °FSunny.15 mph46%29.92 "Hg10 mi
10:30 AM84 °FSunny.14 mph51%29.92 "Hg10 mi
10:00 AM82 °FSunny.12 mph51%29.92 "Hg10 mi
9:30 AM81 °FSunny.12 mph58%29.92 "Hg10 mi
9:00 AM81 °FSunny.12 mph62%29.92 "Hg10 mi
8:30 AM79 °FSunny.12 mph61%29.92 "Hg10 mi
8:00 AM77 °FSunny.12 mph69%29.92 "Hg10 mi
7:30 AM77 °FSunny.12 mph69%29.92 "Hg10 mi
7:00 AM77 °FPartly sunny.12 mph69%29.92 "HgN/A
6:30 AM79 °FPassing clouds.12 mph61%29.92 "HgN/A
6:00 AM79 °FClear.12 mph61%29.89 "Hg10 mi
5:30 AM79 °FClear.14 mph61%29.89 "Hg10 mi
5:00 AM79 °FClear.12 mph61%29.86 "Hg10 mi
4:30 AM79 °FClear.14 mph61%29.86 "Hg10 mi
4:00 AM79 °FClear.15 mph61%29.86 "Hg10 mi
3:30 AM79 °FClear.14 mph61%29.86 "Hg10 mi
3:00 AM79 °FClear.15 mph61%29.86 "Hg10 mi
2:30 AM79 °FClear.21 mph61%29.86 "Hg10 mi
2:00 AM79 °FClear.21 mph61%29.86 "Hg10 mi
1:30 AM81 °FClear.22 mph58%29.86 "Hg10 mi
1:00 AM81 °FClear.21 mph58%29.86 "Hg10 mi
12:30 AM82 °FClear.21 mph51%29.86 "Hg10 mi
12:00 AM82 °FClear.20 mph51%29.86 "Hg10 mi
11:30 PM
Wed, Aug 24
82 °FClear.24 mph51%29.86 "Hg10 mi
11:00 PM84 °FClear.23 mph51%29.83 "Hg10 mi
10:30 PM86 °FWarm.26 mph49%29.83 "Hg4 mi
10:00 PM86 °FWarm.23 mph49%29.83 "Hg4 mi
9:30 PM91 °FHot.23 mph41%29.80 "Hg5 mi
9:00 PM99 °FExtremely hot.5 mph24%29.77 "Hg4 mi
8:30 PM99 °FExtremely hot.No wind24%29.77 "Hg5 mi
8:00 PM99 °FExtremely hot.5 mph19%29.74 "Hg5 mi
7:30 PM100 °FClear.No wind15%29.74 "Hg10 mi
7:00 PM100 °FSunny.No wind15%29.71 "Hg10 mi
6:30 PM102 °FSunny.No wind16%29.71 "Hg10 mi
6:00 PM102 °FPassing clouds.No wind16%29.71 "HgN/A
5:30 PM102 °FPassing clouds.No wind16%29.71 "HgN/A
5:00 PM102 °FPassing clouds.8 mph16%29.71 "HgN/A
4:30 PM102 °FPassing clouds.No wind18%29.71 "HgN/A
4:00 PM102 °FPassing clouds.No wind18%29.74 "HgN/A
3:30 PM102 °FPassing clouds.No wind21%29.74 "HgN/A
3:00 PM100 °FPassing clouds.12 mph24%29.77 "HgN/A
2:30 PM100 °FPassing clouds.8 mph24%29.77 "HgN/A
2:00 PM99 °FPassing clouds.7 mph27%29.77 "HgN/A
1:30 PM97 °FPassing clouds.7 mph30%29.83 "HgN/A
1:00 PM97 °FSunny.14 mph30%29.83 "Hg10 mi
Weather by CustomWeather, © 2016

See weather overviewHow to use our weather pages